Weather in Malaya Shilna

Russia / Republic of Tatarstan     55°48′07″N   52°32′01″E
temp.,
°C
wind,
m/s
gust,
m/s
humid.,
%
clouds,
%
prec.,
mm/h
press.,
hPa
HPBL,
m
11 may, tue
tue1100:00+16ne115780 0.0 102211
03:00+14ne226466 0.0 102313
06:00+17ene2257100 0.0 102487
09:00+22e2340100 0.0 1025476
12:00+25ese3330100 0.0 10252129
15:00+25ese332997 0.0 10262680
18:00+21se3447100 0.0 102657
21:00+18se2250100 0.0 102715
12 may, wed
wed1200:00+16se115193 0.0 102811
03:00+14ene22556 0.0 102811
06:00+18e235226 0.0 1029130
09:00+23ese33400 0.0 1029682
12:00+25ese34328 0.0 10282353
15:00+25ese333117 0.0 10282501
18:00+23ese224690 0.0 102736
21:00+18sse22535 0.0 102814
13 may, thu
thu1300:00+16se225217 0.0 102811
03:00+14sse115687 0.0 102811
06:00+18se125217 0.0 1028114
09:00+23se3439100 0.0 1028806
12:00+25sse463170 0.0 10271817
15:00+26s462949 0.0 10262097
18:00+23s22445 0.0 102623
21:00+18sse22515 0.0 102612
14 may, fri
fri1400:00+17sse22540 0.0 102613
03:00+15sse225593 0.0 102617
06:00+18sse26515 0.0 1026181
09:00+24s463719 0.0 1025782
12:00+27ssw572983 0.0 10241538
15:00+28ssw572814 0.0 10231768
18:00+24ssw36485 0.0 1023156
21:00+19s355542 0.0 102363
15 may, sat
sat1500:00+17ssw355445 0.0 102383
03:00+16ssw335222 0.0 102331
06:00+19s275023 0.0 1023191
09:00+25ssw5735100 0.0 1022758
12:00+28sw57295 0.0 10221433
15:00+28sw56285 0.0 10211574
18:00+25ssw34450 0.0 102082
21:00+20s33540 0.0 102039